#timestamp,LO_Frequency,Hit,StdDev 
1557046815.5,286046999.4,N
1557046835.3,286046996.5,N
1557046855.2,286046996.6,N
1557046875.0,286046998.5,N
1557046875.9,286046998.5,N
1557046895.8,286047000.6,N
1557046915.6,286046999.9,N
1557046935.4,286047000.3,N
1557046955.3,286047000.9,N
1557046975.1,286047000.5,N
1557046995.8,286047000.1,N
1557047015.7,286046998.1,N
1557047035.5,286047000.3,N
1557047055.4,286046999.7,N
1557047075.2,286047002.8,N
1557047095.0,286047000.3,N
1557047095.9,286047000.3,N
1557047115.8,286047000.2,N
1557047135.6,286047000.2,N
1557047155.4,286047000.6,N
1557047175.3,286047000.9,N
1557047195.1,286047011.9,Y
1557047215.9,286047001.8,P
1557047235.7,286047006.0,P
1557047255.5,286047004.1,N
1557047275.4,286047002.7,N
1557047295.2,286047001.2,N
1557047315.0,286046998.1,N
1557047315.9,286046998.1,N
1557047335.8,286047000.8,N
1557047355.7,286047000.6,N
1557047375.5,286047002.0,N
1557047395.4,286047002.3,N
1557047415.2,286047002.2,N
1557047435.0,286047002.4,N
1557047435.9,286047002.4,N
1557047455.8,286046999.7,N
1557047475.6,286047002.7,N
1557047495.5,286047001.6,N
1557047515.3,286047004.1,N
1557047535.1,286047001.8,N
1557047555.9,286047002.7,N
1557047575.7,286047002.7,N
1557047595.5,286047001.2,N
1557047615.4,286046998.1,N
1557047635.2,286046998.4,N
1557047655.0,286047001.0,N
1557047656.0,286047001.0,N
1557047675.8,286047000.3,N
1557047695.6,286047002.6,N
1557047715.5,286047001.3,N
1557047735.3,286047002.7,N
1557047755.1,286047000.6,N
1557047775.9,286047002.1,N
1557047795.7,286047003.8,N
1557047815.5,286047001.6,N
1557047835.4,286047001.3,N
1557047855.2,286047002.6,N
1557047875.1,286047001.9,N
1557047876.0,286047001.9,N
1557047895.8,286047002.4,N
1557047915.6,286047002.8,N
1557047935.5,286047000.3,N
1557047955.3,286047000.2,N
1557047975.1,286047002.7,N
1557047995.9,286047002.7,N
1557048015.7,286047002.6,N
1557048035.6,286046999.9,N
1557048055.4,286047000.2,N
1557048075.2,286047002.5,N
1557048095.1,286047002.7,N
1557048096.0,286047002.7,N
1557048115.8,286047000.3,N
1557048135.6,286047000.4,N
1557048155.5,286047000.0,N
1557048175.3,286047000.4,N
1557048195.2,286046998.2,N
1557048215.9,286047000.8,N
1557048235.7,286046998.7,N
1557048255.6,286046999.0,N
1557048275.4,286046999.4,N
1557048295.3,286046999.0,N
1557048315.1,286046999.2,N
1557048316.0,286046999.2,N
1557048335.8,286046999.0,N
1557048355.7,286047000.7,N
1557048375.5,286047001.1,N
1557048395.3,286047000.8,N
1557048415.2,286047000.2,N
1557048435.0,286047000.0,N
1557048435.9,286047000.0,N
1557048455.8,286046999.9,N
1557048475.6,286047000.0,N
1557048495.4,286047002.8,N
1557048515.3,286046998.5,N
1557048535.1,286046998.2,N
1557048555.8,286046998.8,N
1557048575.7,286046999.0,N
1557048595.5,286046996.5,N
1557048615.4,286046997.2,N
1557048635.2,286046996.5,N
1557048655.0,286046997.8,N
1557048655.9,286046997.8,N
1557048675.8,286046997.8,N
1557048695.6,286046995.4,Y
1557048715.5,286046997.3,P
1557048735.3,286046996.7,P
1557048755.1,286046999.2,N
1557048775.9,286046998.1,N
1557048795.7,286046998.4,N
1557048815.5,286046996.6,Y
1557048835.4,286047000.9,P
1557048855.2,286047000.0,N
1557048875.1,286046999.9,N
1557048876.0,286046999.9,N
1557048895.8,286047000.2,N
1557048915.6,286047001.4,N
1557048935.5,286047003.9,Y
1557048955.3,286047003.5,P
1557048975.2,286047004.0,N
1557048995.9,286047002.7,N
1557049015.7,286047000.4,N
1557049035.6,286047001.1,N
1557049055.4,286046999.8,N
1557049075.2,286047002.6,N
1557049095.1,286047002.1,N
1557049096.0,286047002.1,N
1557049115.8,286047001.6,N
1557049135.7,286047004.1,Y
1557049155.5,286047002.4,P
1557049175.3,286046999.7,N
1557049195.2,286047000.0,N
1557049215.0,286047001.1,N
1557049215.9,286047001.1,N
1557049235.8,286046998.1,N
1557049255.6,286046998.1,N
1557049275.4,286046999.4,N
1557049295.3,286046996.8,N
1557049315.1,286046999.1,N
1557049316.0,286046999.1,N
1557049335.8,286046999.3,N
1557049355.7,286047000.8,N
1557049375.5,286047000.2,N
1557049395.3,286047002.7,N
1557049415.2,286047000.5,N
1557049435.0,286046998.4,N
1557049435.9,286046998.4,N
1557049455.8,286046998.5,N
1557049475.6,286046998.2,N
1557049495.7,286046997.4,N
1557049515.5,286046995.7,N
1557049535.4,286046995.9,N
1557049555.2,286046995.0,N
1557049575.1,286046996.2,N
1557049576.0,286046996.2,N
1557049595.8,286046995.1,N
1557049615.6,286046997.1,N
1557049635.5,286046998.2,N
1557049655.3,286046999.2,N
1557049675.1,286046997.3,N
1557049695.9,286046999.5,N
1557049715.7,286047000.7,N
1557049735.6,286047000.6,N
1557049755.4,286046999.1,N
1557049775.2,286046998.9,N
1557049795.1,286046998.4,N
1557049796.0,286046998.4,N
1557049815.8,286046999.1,N
1557049835.6,286046999.4,N
1557049855.5,286046996.6,N
1557049875.3,286046997.1,N
1557049895.2,286046997.2,N
1557049915.0,286046999.6,N
1557049915.9,286046999.6,N
1557049965.8,286046999.1,E
1557049975.7,286046999.5,N
1557049995.5,286046998.7,P
1557050015.4,286046998.7,P
1557050035.2,286047000.3,N
1557050055.1,286047001.0,N
1557050056.0,286047001.0,N
1557050075.8,286047001.0,N
1557050095.6,286047000.9,N
1557050115.5,286046998.8,N
1557050135.3,286046999.5,N
1557050155.1,286046998.5,N
1557050175.9,286046998.1,N
1557050195.7,286046998.3,N
1557050215.6,286046999.1,N
1557050235.4,286046999.1,N
1557050255.2,286046998.4,N
1557050275.1,286046999.8,N
1557050276.0,286046999.8,N
1557050295.8,286047000.7,N
1557050315.6,286046998.3,N
1557050335.5,286047000.5,N
1557050355.3,286047000.1,N
1557050375.2,286047002.4,N
1557050395.9,286047001.5,N
